Walla Walla, WA

4:03 AM PDT on October 01, 2016 (GMT -0700)
Walla Walla Regional

Weather History for KALW - May, 2012

Change the Weather History Date:

Monday, May 7, 2012

  Actual Average Record
Temperature  
Mean Temperature 57 °F 57 °F  
Max Temperature 72 °F 68 °F 91 °F (1987)
Min Temperature 42 °F 46 °F 32 °F (2002)
Degree Days  
Heating Degree Days 8 9  
Month to date heating degree days 66  
Since 1 July heating degree days 4807  
Cooling Degree Days 0 1  
Month to date cooling degree days 4  
Year to date cooling degree days 6  
Growing Degree Days 7 (Base 50)    
Moisture  
Dew Point 40 °F    
Average Humidity 57    
Maximum Humidity 77    
Minimum Humidity 33    
Precipitation  
Precipitation 0.00 in 0.07 in 0.78 in (1956)
Month to date precipitation 0.47  
Year to date precipitation 8.98  
Snow  
Snow 0.00 in 0.00 in 0.00 in (2001)
Month to date snowfall 0.0  
Year to date snowfall 6.0  
Since 1 July snowfall 11.7  
Snow Depth -    
Sea Level Pressure  
Sea Level Pressure 30.27 in    
Wind  
Wind Speed 2 mph (ENE)    
Max Wind Speed 8 mph    
Max Gust Speed -    
Visibility 10 miles    
Events      
T = Trace of Precipitation, MM = Missing Value Source: NWS Daily Summary

Daily Weather History Graph

Daily Weather History Graph

Search for Another Location

Airport or City:

Trip Planner

Search our weather history database for the weather conditions in past years. The results will help you decide how hot, cold, wet, or windy it might be!

Date:

Astronomy

May. 07, 2012 Rise Set
Actual Time 5:30 AM PDT 8:09 PM PDT
Civil Twilight 4:56 AM PDT 8:44 PM PDT
Nautical Twilight 4:13 AM PDT 9:27 PM PDT
Astronomical Twilight 3:23 AM PDT 10:17 PM PDT
Moon 10:32 PM PDT (5/7) 6:35 AM PDT (5/7)
Length of Visible Light 15h 47m
Length of Day
14h 39m
Waning Gibbous, 96% of the Moon is Illuminated
May 7
Waning Gibbous
May 12
Last Quarter
May 20
New
May 28
First Quarter
Jun 4
Full

Hourly Weather History & Observations

Time (PDT) Temp. Windchill Dew Point Humidity Pressure Visibility Wind Dir Wind Speed Gust Speed Precip Events Conditions
12:53 AM 45.0 °F 43.5 °F 37.9 °F 76% 30.36 in 10.0 mi East 3.5 mph - N/A   Clear
1:53 AM 45.0 °F 43.5 °F 37.0 °F 74% 30.36 in 10.0 mi ESE 3.5 mph - N/A   Clear
2:53 AM 44.1 °F - 36.0 °F 73% 30.35 in 10.0 mi Calm Calm - N/A   Clear
3:53 AM 43.0 °F - 36.0 °F 76% 30.36 in 10.0 mi Calm Calm - N/A   Clear
4:53 AM 42.1 °F - 35.1 °F 76% 30.35 in 10.0 mi Calm Calm - N/A   Clear
5:53 AM 42.1 °F - 35.1 °F 76% 30.35 in 10.0 mi Calm Calm - N/A   Clear
6:53 AM 48.0 °F - 39.0 °F 71% 30.36 in 10.0 mi Calm Calm - N/A   Clear
7:53 AM 51.1 °F - 39.0 °F 63% 30.36 in 10.0 mi Calm Calm - N/A   Clear
8:53 AM 54.0 °F - 37.0 °F 53% 30.35 in 10.0 mi Calm Calm - N/A   Clear
9:53 AM 57.0 °F - 39.0 °F 51% 30.34 in 10.0 mi Variable 3.5 mph - N/A   Clear
10:53 AM 59.0 °F - 41.0 °F 51% 30.33 in 10.0 mi WNW 3.5 mph - N/A   Clear
11:53 AM 62.1 °F - 37.9 °F 41% 30.32 in 10.0 mi Calm Calm - N/A   Clear
12:53 PM 64.9 °F - 35.1 °F 33% 30.30 in 10.0 mi Calm Calm - N/A   Clear
1:53 PM 68.0 °F - 42.1 °F 39% 30.27 in 10.0 mi Calm Calm - N/A   Clear
2:53 PM 69.1 °F - 39.9 °F 35% 30.25 in 10.0 mi West 4.6 mph - N/A   Clear
3:53 PM 71.1 °F - 42.1 °F 35% 30.22 in 10.0 mi North 8.1 mph - N/A   Clear
4:53 PM 72.0 °F - 41.0 °F 33% 30.20 in 10.0 mi Variable 3.5 mph - N/A   Clear
5:53 PM 71.1 °F - 43.0 °F 36% 30.18 in 10.0 mi North 5.8 mph - N/A   Clear
6:53 PM 69.1 °F - 44.1 °F 40% 30.17 in 10.0 mi North 3.5 mph - N/A   Clear
7:53 PM 64.9 °F - 45.0 °F 48% 30.15 in 10.0 mi NE 4.6 mph - N/A   Clear
8:53 PM 55.9 °F - 48.0 °F 75% 30.16 in 10.0 mi East 6.9 mph - N/A   Clear
9:53 PM 55.0 °F - 46.0 °F 72% 30.15 in 10.0 mi ESE 3.5 mph - N/A   Clear
10:53 PM 52.0 °F - 45.0 °F 77% 30.14 in 10.0 mi East 5.8 mph - N/A   Clear
11:53 PM 53.1 °F - 44.1 °F 71% 30.13 in 10.0 mi East 6.9 mph - N/A   Clear